Location: *
(48.8489°N, 2.3218°E)
Time: 17:40:58
(UTC+00:00)

Daily predictions for brighter satellites

Satellite Brightness Start Highest point End
(mag) Time Altitude Azimuth Time Altitude Azimuth Time Altitude Azimuth
SJ-6B 2.9 19:20:18 10° SSE 19:24:17 83° ENE 19:28:23 10° NNW
Meteor 2-4 Rocket 4.0 19:23:58 10° N 19:29:08 46° ENE 19:34:16 10° SE
Meteor 2-19 Rocket 4.5 19:24:28 10° N 19:30:39 77° ENE 19:36:45 10° SSE
Cosmos 2221 Rocket 3.6 19:27:04 10° N 19:31:31 89° ENE 19:35:56 10° S
S3M 4.5 19:28:23 10° SSE 19:34:09 40° E 19:39:54 10° NNE
Cosmos 1536 4.4 19:34:25 10° SE 19:37:08 18° E 19:39:53 10° NE
TSX-5 3.7 19:34:17 10° NNW 19:37:41 64° ENE 19:41:46 10° SE
Cosmos 2098 Rocket 4.4 19:38:01 10° NNE 19:42:06 29° ENE 19:46:57 10° SE
Resurs 1-3 3.7 19:38:13 10° SSE 19:42:33 64° ENE 19:46:54 10° N
Cosmos 44 Rocket 3.3 19:40:42 10° NW 19:45:32 86° SW 19:50:14 10° SE
Cosmos 1745 Rocket 4.1 19:40:22 10° N 19:46:26 57° ENE 19:52:27 10° SSE
Cosmos 1656 3.9 19:45:48 10° NNW 19:51:26 57° ENE 19:56:25 13° SE
Spot 2 Rocket 4.0 19:47:55 11° SE 19:52:35 42° ENE 19:57:22 10° N
SJ 16-02 2.6 19:49:19 10° SSE 19:52:43 22° E 19:56:08 10° NE
USA 234 3.6 19:48:24 10° SE 19:54:55 64° SW 20:01:27 10° WNW
SL-24 R/B 4.4 19:51:08 10° SSE 19:55:36 53° ENE 19:59:50 10° N
SL-08 RB Rocket 3.7 19:51:26 10° SSE 19:55:58 74° ENE 20:00:34 10° N
Cosmos 1515 3.7 19:53:20 10° N 19:57:09 66° E 20:00:56 10° SSE
Cosmos 1833 Rocket 3.7 19:54:32 10° SSE 19:59:01 25° ESE 20:03:32 10° NE
Aureole 3 Rocket 3.2 19:56:36 10° SSE 19:59:46 30° E 20:02:33 10° NNE
Abrixas rocket 1.9 20:00:24 10° WSW 20:03:29 77° S 20:05:48 16° E
Cosmos 2082 Rocket 3.5 20:00:49 14° SE 20:03:39 20° E 20:07:36 10° NE
Cosmos 2278 4.3 20:01:09 10° NNW 20:06:32 42° NE 20:10:34 17° ESE
Cosmos 1697 Rocket 3.1 20:05:43 10° NNW 20:11:16 50° NE 20:15:15 19° SE
Aureole 2 Rocket 4.1 20:09:14 10° NW 20:11:23 22° WSW 20:13:32 10° SSW
Meteor 1-11 Rocket 3.9 20:06:22 10° S 20:12:08 57° E 20:18:00 10° NNE
Cosmos 1809 Rocket 4.5 20:06:16 10° N 20:12:28 75° E 20:18:39 10° SSE
SL-16 R/B 4.2 20:09:01 10° N 20:12:31 16° NE 20:16:01 10° ENE
DMSP B5D2-2 4.3 20:08:42 10° NNE 20:13:49 49° E 20:18:54 10° S
Cosmos 1666 4.0 20:14:55 20° ESE 20:15:39 21° E 20:18:35 10° NE
MetOp-A 4.2 20:12:18 10° SSE 20:17:40 83° WSW 20:23:04 10° NNW
CZ-2C R/B 3.3 20:13:34 10° NNE 20:18:20 33° E 20:21:34 18° SSE
Resurs 01 Rocket 1.8 20:13:58 10° S 20:18:21 74° WSW 20:22:47 10° NNW
Cosmos 2112 Rocket 4.2 20:13:08 10° NNW 20:18:23 69° WSW 20:23:13 12° S
Meteor 2-21 4.4 20:14:38 10° N 20:20:50 77° ENE 20:26:35 12° SSE
Meteor 1-5 Rocket 4.2 20:15:28 10° S 20:21:09 71° E 20:26:41 10° NNE
Cosmos 1378 Rocket 3.5 20:17:33 10° N 20:22:00 80° E 20:25:30 16° SSE
Cosmos 1733 Rocket 3.5 20:21:30 10° SSW 20:25:46 63° WNW 20:30:04 10° N
Cosmos 1782 Rocket 4.3 20:26:22 24° SE 20:28:11 34° E 20:32:10 10° NNE
Cosmos 1674 Rocket 4.0 20:24:46 10° NNW 20:29:05 62° W 20:33:16 10° S
MTI 3.9 20:27:17 10° NNE 20:30:22 48° E 20:31:22 33° SSE
ADEOS Rocket 3.1 20:24:30 10° NNE 20:30:32 87° WNW 20:37:13 10° SSW
Cosmos 1980 Rocket 2.8 20:29:43 10° NNW 20:35:07 45° NE 20:38:09 24° ESE
Landsat 7 4.3 20:34:04 26° ESE 20:36:17 44° ENE 20:40:48 10° N
Meteor 2-21 Rocket 4.4 20:33:24 10° N 20:39:37 83° E 20:44:23 18° SSE
ARGOS 4.4 20:35:01 10° SSW 20:39:59 38° W 20:44:59 10° NNW
USA 245 4.1 20:38:12 25° SSE 20:41:13 70° ENE 20:47:07 10° N
BREEZE M DEB (TANK) 2.1 20:42:17 10° SW 20:47:29 16° E 20:49:08 10° ENE
CZ-2C R/B 3.5 20:40:31 12° S 20:44:49 53° W 20:49:35 10° NNW
USA 229 DEB 3.9 20:37:44 10° NW 20:44:56 72° NE 20:49:32 26° SE
COSMOS 2406 3.4 20:39:16 10° SW 20:44:57 75° WNW 20:50:42 10° NNE
USA 229 3.9 20:37:50 10° NW 20:45:02 71° NE 20:49:38 26° SE
Cosmos 883 Rocket 4.5 20:40:01 10° S 20:46:20 80° E 20:52:42 10° N
Shenzhou-11 Module 3.8 20:45:31 10° WSW 20:46:45 18° SW 20:46:45 18° SW
NOSS 3-1 (A) 4.4 20:41:04 10° NW 20:48:10 55° NE 20:53:34 22° ESE
Cosmos 1898 Rocket 3.5 20:43:18 10° SSW 20:48:35 85° WNW 20:53:51 10° NNE
Iridium 2 3.6 20:46:23 23° S 20:48:39 86° W 20:52:26 10° N
Meteor 1-23 Rocket 4.2 20:43:06 10° NNW 20:48:53 88° E 20:52:31 23° S
Cosmos 1975 Rocket 3.1 20:46:50 10° N 20:51:15 65° ENE 20:52:55 36° SSE
Cosmos 1500 3.7 20:48:58 10° SSW 20:52:46 58° WNW 20:56:35 10° N
Cosmos 2369 3.8 20:49:32 10° NNW 20:55:12 75° WSW 20:58:18 28° SSE
H-2A R/B 3.9 20:52:40 10° SSW 20:56:46 25° W 21:00:50 10° NW
Thor Agena Rocket 4.1 20:53:51 10° NNE 20:58:41 38° E 20:59:41 34° ESE
Geosat 3.9 20:57:05 33° SSE 20:59:26 87° WSW 21:04:30 10° NNW
Cosmos 858 Rocket 4.5 20:55:24 10° SSW 21:00:42 87° WNW 21:06:02 10° NNE
ERS-1 Rocket 2.9 20:58:43 35° SSE 21:00:49 71° ENE 21:05:51 10° N
USA 267 4.0 20:55:49 10° ENE 21:02:08 53° NNW 21:08:27 10° W
EXPRESS MD2 4.2 21:01:02 10° W 21:04:14 26° SW 21:04:14 26° SW
Cosmos 1346 Rocket 2.6 21:03:35 52° SSE 21:04:23 71° E 21:08:15 10° NNE
Terra 2.4 21:05:37 36° ESE 21:06:47 43° ENE 21:11:18 10° N
ASTEX 1 4.2 21:02:34 10° N 21:07:22 51° WNW 21:12:07 10° SSW
Cosmos 1867 4.2 21:03:23 10° NNW 21:08:39 45° NE 21:10:54 30° E
IGS 5A 3.4 21:07:53 51° SE 21:08:50 75° ENE 21:12:59 10° N
Cosmos 1340 2.5 21:08:46 64° SSE 21:09:11 72° E 21:12:58 10° NNE
GP-B 3.9 21:04:55 10° N 21:09:14 51° W 21:12:29 17° SSW
Cosmos 1709 Rocket 4.3 21:06:02 10° NNW 21:12:06 65° W 21:16:23 20° S
Cosmos 1536 3.9 21:09:36 12° SSW 21:13:13 45° WNW 21:17:09 10° N
CARTOSAT-1 3.6 21:12:37 51° ESE 21:13:26 64° ENE 21:17:44 10° N
Meteor 2-8 Rocket 4.3 21:13:37 29° S 21:16:52 74° E 21:22:56 10° NNE
MOS 1 Rocket 3.9 21:14:58 10° NNE 21:20:12 48° E 21:21:06 43° SE
Cosmos 2074 Rocket 4.0 21:15:20 10° N 21:21:38 67° ENE 21:23:55 40° SE
Cosmos 2322 Rocket 3.2 21:20:06 10° NNW 21:25:13 34° NE 21:27:05 27° E
EO 1 Del DPAF 3.1 21:23:26 10° NNE 21:27:15 86° WNW 21:27:30 77° SSW
Cosmos 2184 Rocket 3.9 21:23:27 10° N 21:29:39 73° E 21:31:41 44° SSE
SJ 16-02 2.4 21:26:47 10° SW 21:31:01 45° WNW 21:35:18 10° N
Cosmos 2360 4.3 21:25:35 10° NNW 21:31:15 68° WSW 21:33:06 42° S
Cosmos 2315 Rocket 4.4 21:25:52 12° SSW 21:31:43 64° WNW 21:38:01 10° N
Cosmos 1937 Rocket 4.3 21:27:29 10° SW 21:32:40 53° WNW 21:37:54 10° NNE
NOSS 3-1 (C) 4.1 21:30:05 10° NW 21:37:33 76° SW 21:41:04 39° SSE
SPOT 5 2.6 21:37:10 60° SSW 21:37:47 70° WSW 21:42:09 10° NNW
Cosmos 1743 2.8 21:38:45 72° N 21:38:45 72° N 21:42:14 10° N
Abrixas rocket 4.1 21:36:20 10° W 21:37:43 24° W 21:37:43 24° W
BREEZE-M DEB (TANK) 4.2 21:36:43 10° W 21:38:54 24° SW 21:38:54 24° SW
Okean 2 Rocket 2.9 21:39:57 78° S 21:40:15 86° ESE 21:44:42 10° N
Cosmos 372 Rocket 3.8 21:39:16 53° S 21:40:30 78° ESE 21:45:46 10° NNE
Cosmos 1536 Rocket 3.6 21:36:19 10° N 21:40:44 65° ENE 21:40:44 65° ENE
Cosmos 1833 Rocket 3.1 21:36:57 10° SW 21:42:32 61° WNW 21:48:09 10° NNE
Cosmos 1025 Rocket 3.2 21:40:03 10° N 21:44:09 58° ENE 21:44:09 58° ENE
Cosmos 2082 Rocket 2.3 21:42:32 16° SW 21:47:05 75° WNW 21:52:48 10° NNE
Cosmos 405 3.9 21:46:37 10° N 21:49:15 46° N 21:49:15 46° N
Cosmos 1666 4.2 21:49:47 26° WSW 21:51:04 33° WNW 21:54:33 10° N
SPOT 1/Viking Rocket 4.4 21:49:53 33° SW 21:51:41 45° W 21:56:42 10° NNW
Cosmos 2341 Rocket 4.5 21:47:26 10° N 21:53:33 45° ENE 21:54:40 41° E
Cosmos 1697 Rocket 4.0 21:50:06 10° NW 21:55:01 31° WSW 21:57:00 25° SW
Meteor 2-9 Rocket 4.3 21:54:53 58° SE 21:55:31 61° E 22:01:19 10° NNE
Okean 2 4.0 21:51:52 10° NNW 21:55:49 47° W 21:55:59 46° WSW
SL-16 R/B 2.3 21:52:14 10° NNW 21:57:52 61° ENE 21:58:47 53° E
CZ-2C R/B 3.8 21:53:47 10° N 21:58:42 41° WNW 22:03:04 13° SW
Cosmos 2150 Rocket 4.3 21:58:16 33° SW 22:00:33 64° WNW 22:05:46 10° NNE
FALCON 9 R/B 4.2 21:45:44 10° WSW 22:03:37 34° S 22:04:09 34° S
ALOS 2 4.3 22:08:04 23° ENE 22:08:04 23° ENE 22:11:12 10° NNE
Cosmos 1842 4.0 22:06:54 10° NNW 22:10:02 53° NW 22:10:02 53° NW
Cosmos 2360 Rocket 3.0 22:08:36 10° NNW 22:13:53 39° NE 22:14:53 36° ENE
Cosmos 1610 Rocket 4.5 22:10:33 10° NNW 22:16:42 76° W 22:17:54 58° SSW
IRAS Rocket 4.1 22:17:52 73° SE 22:18:22 81° ENE 22:24:00 10° NNW
Cosmos 2219 Rocket 4.2 22:14:48 10° N 22:18:52 20° NE 22:21:24 15° ENE
SL-8 Rocket 4.4 22:12:48 10° N 22:18:54 49° ENE 22:19:36 47° E
Cosmos 1980 Rocket 3.2 22:13:57 10° NW 22:19:00 35° WSW 22:19:54 33° SW
Cosmos 1707 4.2 22:17:00 10° N 22:19:24 32° NNE 22:19:24 32° NNE
Lacrosse 4 Rocket 3.3 22:18:16 10° N 22:21:31 21° NE 22:21:43 21° NE
Cosmos 2181 Rocket 4.4 22:21:38 44° E 22:21:38 44° E 22:27:23 10° NNE
Meteor 1-21 4.3 22:16:40 10° NNW 22:22:15 64° W 22:22:56 59° SW
Cosmos 1975 3.9 22:22:41 40° WNW 22:22:41 40° WNW 22:26:16 10° N
CZ-4C R/B 2.7 22:24:45 46° ENE 22:24:45 46° ENE 22:29:21 10° NE
Cosmos 2151 Rocket 4.1 22:24:18 54° WNW 22:24:18 54° WNW 22:28:40 10° N
APEX 4.0 22:26:59 10° NNW 22:31:37 65° NW 22:31:37 65° NW
ARGOS Delta rocket 4.1 22:36:39 75° WSW 22:36:42 75° W 22:42:12 10° NNW
Meteor 1-12 Rocket 4.3 22:36:24 69° SW 22:37:04 79° WNW 22:42:59 10° N
NOSS 3-1 (A) 4.4 22:32:02 10° NW 22:39:20 53° WSW 22:40:59 47° SSW
Helios 1A 3.9 22:44:29 47° NNW 22:44:29 47° NNW 22:47:31 10° NNW
Okean 1 Rocket 3.8 22:44:25 50° N 22:44:25 50° N 22:47:42 10° N
USA 267 4.3 22:38:24 10° ENE 22:44:31 44° N 22:50:38 10° WNW
Terra 3.4 22:44:31 26° W 22:44:42 26° W 22:48:42 10° NW
Cosmos 962 Rocket 4.3 22:39:13 10° NNW 22:45:22 78° W 22:45:53 72° SW
Cosmos 1959 Rocket 4.5 22:40:24 10° N 22:46:31 62° ENE 22:46:46 62° E
Nimbus 7 Rocket 4.3 22:40:40 10° NNE 22:46:45 73° ESE 22:46:49 73° ESE
Cosmos 2322 4.4 22:42:35 10° NNW 22:48:05 44° NE 22:48:43 42° ENE
Cosmos 1867 4.5 22:47:09 10° NW 22:51:33 38° W 22:51:33 38° W
Mayak -0.1 22:48:07 10° N 22:50:59 42° N 22:50:59 42° N
Cosmos 1125 Rocket 4.3 22:52:40 41° W 22:53:41 46° WNW 22:58:47 10° NNE
Cosmos 2218 Rocket 3.9 22:48:40 10° N 22:55:04 74° E 22:55:27 71° ESE
Meteor 1-15 Rocket 4.3 23:08:46 71° NE 23:08:46 71° NE 23:13:54 10° NNE
Cosmos 2322 Rocket 2.8 23:04:04 10° NW 23:08:53 47° W 23:08:53 47° W
Cosmos 2333 Rocket 3.1 23:07:29 10° NNW 23:12:49 40° NE 23:13:34 38° ENE
Aureole 1 Rocket 4.1 23:14:20 10° NNW 23:22:23 85° ENE 23:23:01 75° SE
ATLAS 2AS CENTAUR R/B 3.8 23:21:02 10° NW 23:28:34 45° NNE 23:33:53 18° E
Cosmos 2366 rocket 4.1 23:31:15 10° NNW 23:37:25 62° W 23:37:26 62° W
Cosmos 2251 Rocket 4.1 23:32:54 10° NNW 23:37:09 52° WNW 23:37:09 52° WNW
COSMOS 2455 3.0 23:33:41 10° NNW 23:39:43 64° NE 23:40:03 63° ENE
SL-16 R/B 3.8 23:37:00 10° NW 23:40:38 24° W 23:40:38 24° W
ALOS 2 4.1 23:45:28 31° NW 23:45:28 31° NW 23:48:04 10° NNW
Meteor 1-24 Rocket 3.8 23:40:27 10° NNW 23:45:04 67° N 23:45:04 67° N
Cosmos 2227 Rocket 4.4 23:54:46 12° E 23:54:46 12° E 23:56:29 10° ENE
